When you browse on this site, cookies collect data to enhance your experience and personalize the content and advertising you see.
Visit our Privacy Policy to learn more. By continuing to use the site, you agree to this use of cookies and data.

Stündliche Wetter Cordoba

Heute, 12 August, Mittwoch

Zeit Temperatur Niederschläge Wind Luftdruck Luftfeuchtigkeit
00:00 +7°C° 0 mm 1 m/S 726 mmHg 21%
01:00 +7°C° 0 mm 1 m/S 725 mmHg 21%
02:00 +6°C° 0 mm 1 m/S 725 mmHg 21%
03:00 +6°C° 0 mm 1 m/S 725 mmHg 22%
04:00 +6°C° 0 mm 1 m/S 724 mmHg 23%
05:00 +5°C° 0 mm 1 m/S 724 mmHg 23%
06:00 +6°C° 0 mm 1 m/S 724 mmHg 23%
07:00 +7°C° 0 mm 1 m/S 724 mmHg 22%
08:00 +7°C° 0 mm 1 m/S 725 mmHg 22%
09:00 +9°C° 0 mm 2 m/S 725 mmHg 19%
10:00 +11°C° 0 mm 3 m/S 725 mmHg 17%
11:00 +14°C° 0 mm 4 m/S 725 mmHg 14%
12:00 +15°C° 0 mm 4 m/S 724 mmHg 13%
13:00 +17°C° 0 mm 4 m/S 723 mmHg 13%
14:00 +18°C° 0 mm 4 m/S 723 mmHg 12%
15:00 +17°C° 0 mm 4 m/S 722 mmHg 14%
16:00 +15°C° 0 mm 4 m/S 722 mmHg 16%
17:00 +15°C° 0 mm 4 m/S 721 mmHg 17%
18:00 +12°C° 0 mm 3 m/S 722 mmHg 22%
19:00 +10°C° 0 mm 3 m/S 722 mmHg 26%
20:00 +8°C° 0 mm 2 m/S 722 mmHg 30%
21:00 +8°C° 0 mm 2 m/S 722 mmHg 31%
22:00 +7°C° 0 mm 2 m/S 722 mmHg 32%
23:00 +7°C° 0 mm 2 m/S 723 mmHg 34%

Morgen, 13 August, Donnerstag

Zeit Temperatur Niederschläge Wind Luftdruck Luftfeuchtigkeit
00:00 +7°C° 0 mm 2 m/S 722 mmHg 33%
01:00 +6°C° 0 mm 2 m/S 722 mmHg 33%
02:00 +7°C° 0 mm 1 m/S 722 mmHg 33%
03:00 +7°C° 0 mm 1 m/S 722 mmHg 33%
04:00 +7°C° 0 mm 1 m/S 722 mmHg 33%
05:00 +6°C° 0 mm 1 m/S 722 mmHg 33%
06:00 +7°C° 0 mm 1 m/S 722 mmHg 31%
07:00 +8°C° 0 mm 1 m/S 722 mmHg 30%
08:00 +9°C° 0 mm 1 m/S 722 mmHg 29%
09:00 +12°C° 0 mm 1 m/S 723 mmHg 24%
10:00 +15°C° 0 mm 1 m/S 723 mmHg 20%
11:00 +18°C° 0 mm 1 m/S 723 mmHg 16%
12:00 +18°C° 0 mm 2 m/S 722 mmHg 15%
13:00 +19°C° 0 mm 2 m/S 722 mmHg 15%
14:00 +20°C° 0 mm 3 m/S 721 mmHg 14%
15:00 +20°C° 0 mm 3 m/S 720 mmHg 16%
16:00 +19°C° 0 mm 3 m/S 720 mmHg 17%
17:00 +19°C° 0 mm 3 m/S 719 mmHg 19%
18:00 +16°C° 0 mm 3 m/S 719 mmHg 25%
19:00 +13°C° 0 mm 3 m/S 719 mmHg 32%
20:00 +10°C° 0 mm 3 m/S 719 mmHg 39%
21:00 +10°C° 0 mm 3 m/S 719 mmHg 39%
22:00 +10°C° 0 mm 3 m/S 719 mmHg 40%
23:00 +10°C° 0 mm 3 m/S 719 mmHg 41%

übermorgen, 14 August, Freitag

Zeit Temperatur Niederschläge Wind Luftdruck Luftfeuchtigkeit
00:00 +9°C° 0 mm 3 m/S 719 mmHg 42%
01:00 +9°C° 0 mm 3 m/S 718 mmHg 43%
02:00 +8°C° 0 mm 2 m/S 718 mmHg 44%
03:00 +8°C° 0 mm 2 m/S 718 mmHg 45%
04:00 +8°C° 0 mm 2 m/S 717 mmHg 47%
05:00 +8°C° 0 mm 2 m/S 717 mmHg 48%
06:00 +8°C° 0 mm 2 m/S 718 mmHg 47%
07:00 +10°C° 0 mm 1 m/S 718 mmHg 46%
08:00 +10°C° 0 mm 1 m/S 719 mmHg 46%
09:00 +12°C° 0 mm 3 m/S 719 mmHg 38%
10:00 +15°C° 0 mm 5 m/S 720 mmHg 29%
11:00 +17°C° 0 mm 7 m/S 721 mmHg 21%
12:00 +17°C° 0 mm 7 m/S 721 mmHg 24%
13:00 +17°C° 0 mm 8 m/S 721 mmHg 28%
14:00 +16°C° 0 mm 8 m/S 721 mmHg 31%
15:00 +16°C° 0 mm 7 m/S 721 mmHg 30%
16:00 +15°C° 0 mm 6 m/S 721 mmHg 30%
17:00 +15°C° 0 mm 5 m/S 721 mmHg 30%
18:00 +13°C° 0 mm 4 m/S 722 mmHg 30%
19:00 +11°C° 0 mm 4 m/S 722 mmHg 31%
20:00 +9°C° 0 mm 3 m/S 723 mmHg 31%
21:00 +8°C° 0 mm 2 m/S 723 mmHg 30%
22:00 +8°C° 0 mm 2 m/S 723 mmHg 30%
23:00 +7°C° 0 mm 2 m/S 723 mmHg 29%

15 August, Samstag

Zeit Temperatur Niederschläge Wind Luftdruck Luftfeuchtigkeit
00:00 +7°C° 0 mm 1 m/S 723 mmHg 29%
01:00 +7°C° 0 mm 1 m/S 723 mmHg 29%
02:00 +7°C° 0 mm 1 m/S 723 mmHg 29%
03:00 +7°C° 0 mm 1 m/S 723 mmHg 30%
04:00 +6°C° 0 mm 1 m/S 722 mmHg 30%
05:00 +6°C° 0 mm 1 m/S 722 mmHg 31%
06:00 +7°C° 0 mm 1 m/S 722 mmHg 30%
07:00 +7°C° 0 mm 2 m/S 722 mmHg 30%
08:00 +8°C° 0 mm 2 m/S 722 mmHg 29%
09:00 +10°C° 0 mm 3 m/S 722 mmHg 26%
10:00 +13°C° 0 mm 3 m/S 722 mmHg 22%
11:00 +15°C° 0 mm 4 m/S 722 mmHg 19%
12:00 +17°C° 0 mm 4 m/S 722 mmHg 19%
13:00 +18°C° 0 mm 3 m/S 721 mmHg 19%
14:00 +19°C° 0 mm 3 m/S 720 mmHg 19%
15:00 +18°C° 0 mm 3 m/S 721 mmHg 20%
16:00 +18°C° 0 mm 3 m/S 721 mmHg 21%
17:00 +17°C° 0 mm 3 m/S 721 mmHg 21%
18:00 +14°C° 0 mm 4 m/S 722 mmHg 23%
19:00 +12°C° 0 mm 5 m/S 723 mmHg 25%
20:00 +9°C° 0 mm 6 m/S 724 mmHg 26%
21:00 +8°C° 0 mm 5 m/S 725 mmHg 27%
22:00 +7°C° 0 mm 4 m/S 726 mmHg 27%
23:00 +7°C° 0 mm 3 m/S 727 mmHg 27%

16 August, Sonntag

Zeit Temperatur Niederschläge Wind Luftdruck Luftfeuchtigkeit
00:00 +5°C° 0 mm 3 m/S 727 mmHg 27%
01:00 +6°C° 0 mm 2 m/S 727 mmHg 26%
02:00 +5°C° 0 mm 2 m/S 727 mmHg 26%
03:00 +5°C° 0 mm 2 m/S 727 mmHg 26%
04:00 +4°C° 0 mm 2 m/S 727 mmHg 26%
05:00 +5°C° 0 mm 1 m/S 727 mmHg 26%
06:00 +6°C° 0 mm 1 m/S 727 mmHg 25%
07:00 +7°C° 0 mm 1 m/S 727 mmHg 25%
08:00 +7°C° 0 mm 1 m/S 727 mmHg 24%
09:00 +9°C° 0 mm 1 m/S 727 mmHg 22%
10:00 +12°C° 0 mm 1 m/S 727 mmHg 19%
11:00 +14°C° 0 mm 1 m/S 727 mmHg 17%
12:00 +15°C° 0 mm 2 m/S 727 mmHg 16%
13:00 +16°C° 0 mm 2 m/S 726 mmHg 15%
14:00 +17°C° 0 mm 3 m/S 725 mmHg 15%
15:00 +17°C° 0 mm 3 m/S 725 mmHg 16%
16:00 +16°C° 0 mm 3 m/S 725 mmHg 17%
17:00 +15°C° 0 mm 4 m/S 724 mmHg 18%
18:00 +13°C° 0 mm 3 m/S 724 mmHg 21%
19:00 +11°C° 0 mm 3 m/S 724 mmHg 24%
20:00 +8°C° 0 mm 3 m/S 724 mmHg 27%
21:00 +8°C° 0 mm 3 m/S 725 mmHg 28%
22:00 +8°C° 0 mm 3 m/S 725 mmHg 29%
23:00 +7°C° 0 mm 3 m/S 725 mmHg 30%

17 August, Montag

Zeit Temperatur Niederschläge Wind Luftdruck Luftfeuchtigkeit
00:00 +7°C° 0 mm 3 m/S 725 mmHg 31%
01:00 +7°C° 0 mm 3 m/S 725 mmHg 32%
02:00 +7°C° 0 mm 2 m/S 724 mmHg 33%
03:00 +7°C° 0 mm 2 m/S 724 mmHg 35%
04:00 +7°C° 0 mm 2 m/S 724 mmHg 37%
05:00 +7°C° 0 mm 2 m/S 723 mmHg 39%
06:00 +7°C° 0 mm 2 m/S 723 mmHg 38%
07:00 +8°C° 0 mm 2 m/S 723 mmHg 37%
08:00 +9°C° 0 mm 2 m/S 724 mmHg 36%
09:00 +12°C° 0 mm 3 m/S 724 mmHg 32%
10:00 +15°C° 0 mm 4 m/S 724 mmHg 28%
11:00 +19°C° 0 mm 5 m/S 723 mmHg 24%
12:00 +20°C° 0 mm 5 m/S 723 mmHg 23%
13:00 +21°C° 0 mm 5 m/S 722 mmHg 22%
14:00 +22°C° 0 mm 6 m/S 721 mmHg 20%
15:00 +21°C° 0 mm 5 m/S 721 mmHg 22%
16:00 +21°C° 0 mm 5 m/S 721 mmHg 23%
17:00 +20°C° 0 mm 5 m/S 720 mmHg 25%
18:00 +18°C° 0 mm 4 m/S 721 mmHg 30%
19:00 +14°C° 0 mm 3 m/S 721 mmHg 34%
20:00 +12°C° 0 mm 3 m/S 721 mmHg 39%
21:00 +12°C° 0 mm 2 m/S 721 mmHg 41%
22:00 +12°C° 0 mm 2 m/S 722 mmHg 42%
23:00 +10°C° 0 mm 2 m/S 722 mmHg 44%
Mehr zeigen